Weather observations for the past three days for
Cut Bank, Cut Bank Municipal Airport
Imperial (Metric)
Date Time (mdt) Wind (mph) Vis. (mi.) Weather Sky Cond. Temperature (ºF) Relative Humidity Wind Chill (°F) Heat Index (°F) Pressure Precipitation (in)
Air Dwpt 6 hour altimeter (in) sea level (mb) 1 hr 3 hr 6 hr
Max. Min.
15 03:56 NE 5 10.00 Fair CLR 53.1 51.1 93% 30.07 1015.0
15 02:56 N 3 10.00 Fair CLR 54 51.1 90% 30.09 1015.3
15 01:56 NW 5 10.00 Fair CLR 53.1 51.1 93% 30.09 1015.7
15 00:56 N 7 10.00 Fair CLR 57 52 83% 30.09 1015.8
14 23:56 N 10 10.00 Fair CLR 59 53.1 84.9 59 81% 30.09 1015.9
14 22:56 N 10 10.00 Fair CLR 64.9 53.1 66% 30.07 1015.0
14 21:56 N 9 10.00 Fair CLR 68 53.1 59% 30.05 1014.4
14 20:56 N 17 10.00 Fair CLR 73 53.1 50% 30.01 1013.0
14 19:56 N 22 G 28 10.00 Fair and Breezy CLR 77 53.1 43% 78 29.99 1012.6
14 18:56 NE 21 10.00 Fair and Breezy CLR 82 54 38% 81 29.97 1011.7
14 17:56 NE 20 10.00 A Few Clouds FEW120 82.9 54 93.9 80.1 37% 82 29.95 1011.2
14 16:56 W 13 G 22 10.00 Fair CLR 91 35.1 14% 87 29.95 1010.3
14 15:56 W 15 G 25 10.00 Fair CLR 91.9 32 12% 88 29.95 1010.5
14 14:56 W 16 G 30 10.00 Fair CLR 93 32 11% 89 29.96 1010.2
14 13:56 Calm 10.00 A Few Clouds FEW100 89.1 42.1 19% 85 29.97 1011.0
14 12:56 SW 6 10.00 Fair CLR 87.1 45 23% 84 30 1011.9
14 11:56 Calm 10.00 Fair CLR 80.1 52 80.1 55 38% 80 30.02 1012.7
14 10:56 Calm 10.00 Fair CLR 78.1 51.1 39% 79 30.03 1013.2
14 09:56 NW 8 10.00 Fair CLR 73.9 54 50% 30.05 1013.7
14 08:56 NW 13 10.00 Fair CLR 70 54 57% 30.06 1014.3
14 07:56 NW 16 10.00 Fair CLR 63 53.1 70% 30.05 1014.0
14 06:56 NW 9 10.00 Fair CLR 59 53.1 81% 30.04 1013.8
14 05:56 NW 7 10.00 Fair CLR 54 51.1 69.1 53.1 90% 30.04 1013.8
14 04:56 N 7 10.00 Fair CLR 59 48.9 69% 30.03 1013.3
14 03:56 W 9 10.00 Fair CLR 57.9 43 58% 30.01 1012.6
14 02:56 W 10 10.00 Fair CLR 63 43 48% 30 1012.2
14 01:56 SW 7 10.00 Fair CLR 61 44.1 54% 30 1012.4
14 00:56 NW 13 10.00 Fair CLR 64 45 50% 30.01 1012.3
13 23:56 W 7 10.00 Fair CLR 69.1 44.1 91 66 41% 30.01 1012.3
13 22:56 W 5 10.00 Fair CLR 73 43 34% 30 1012.2
13 21:56 W 5 10.00 Fair CLR 75 43 32% 77 30 1012.3
13 20:56 W 8 10.00 Fair CLR 80.1 43 27% 79 29.99 1012.1
13 19:56 W 14 10.00 Fair CLR 86 42.1 21% 83 29.99 1011.9
13 18:56 SW 14 G 21 10.00 Fair CLR 88 39 18% 84 29.99 1012.1
13 17:56 W 13 G 23 10.00 Fair CLR 90 36 91.9 82 15% 86 29.99 1012.2
13 16:56 W 12 G 24 10.00 Fair CLR 91 36 14% 87 30 1012.2
13 15:56 W 10 G 22 10.00 A Few Clouds FEW110 91 37 15% 87 30.02 1012.7
13 14:56 NW 10 G 20 10.00 Fair CLR 88 37.9 17% 84 30.02 1012.8
13 13:56 NW 5 10.00 A Few Clouds FEW100 87.1 43 21% 84 30.03 1013.3
13 12:56 NW 12 10.00 Fair CLR 87.1 43 21% 84 30.04 1013.7
13 11:56 W 8 10.00 Fair CLR 82 48.9 82 52 32% 81 30.06 1014.3
13 10:56 SW 7 10.00 Fair CLR 77 52 42% 78 30.07 1014.8
13 09:56 Calm 10.00 Fair CLR 70 53.1 55% 30.09 1015.7
13 08:56 S 7 10.00 Fair CLR 66 53.1 63% 30.09 1015.9
13 07:56 Calm 10.00 Fair CLR 61 50 67% 30.1 1016.2
13 06:56 W 5 10.00 Fair CLR 55 48.9 80% 30.09 1016.3
13 05:56 W 7 10.00 Fair CLR 54 48 66.9 54 80% 30.08 1015.8
13 04:56 E 9 10.00 Fair CLR 60.1 48.9 67% 30.07 1014.8
13 03:56 E 10 10.00 Fair CLR 59 48 67% 30.07 1015.2
13 02:56 E 6 10.00 Fair CLR 61 48 63% 30.07 1015.1
13 01:56 SE 8 10.00 Fair CLR 62.1 48 60% 30.07 1014.9
13 00:56 SE 8 10.00 Fair CLR 63 48 58% 30.07 1015.3
12 23:56 SE 7 10.00 Fair CLR 66.9 46.9 82.9 64.9 49% 30.07 1015.1
12 22:56 E 5 10.00 Fair CLR 68 48 49% 30.07 1015.2
12 21:56 SE 6 10.00 Fair CLR 71.1 48 44% 30.07 1015.1
12 20:56 SE 7 10.00 Fair CLR 75 48 39% 77 30.06 1014.8
12 19:56 SE 8 10.00 Fair CLR 79 46.9 32% 79 30.07 1014.9
12 18:56 E 8 10.00 Fair CLR 80.1 46.9 31% 79 30.07 1014.9
12 17:56 Calm 10.00 Fair CLR 81 46.9 82.9 75 30% 80 30.07 1015.0
12 16:56 NE 8 G 17 10.00 Fair CLR 82.9 48 30% 81 30.08 1015.2
12 15:56 Vrbl 7 10.00 Fair CLR 81 46.9 30% 80 30.1 1016.0
12 14:56 N 7 10.00 Fair CLR 79 46.9 32% 79 30.12 1016.8
12 13:56 N 12 10.00 Fair CLR 79 48 34% 79 30.13 1016.9
12 12:56 NW 16 G 26 10.00 Fair CLR 75.9 46.9 36% 78 30.13 1017.7
12 11:56 NW 22 G 30 10.00 Fair and Breezy CLR 75 46.9 75 62.1 37% 77 30.14 1017.7
12 10:56 NW 23 G 32 10.00 Fair and Breezy CLR 71.1 45 39% 30.14 1017.6
12 09:56 NW 24 G 35 10.00 Partly Cloudy and Breezy SCT046 68 48.9 51% 30.13 1017.1
12 08:56 NW 24 G 35 10.00 Fair and Breezy CLR 66 50 56% 30.13 1016.5
12 07:56 NW 21 G 30 10.00 A Few Clouds and Breezy FEW027 64.9 53.1 66% 30.11 1015.6
12 06:56 NW 18 G 31 10.00 Fair CLR 63 53.1 70% 30.08 1014.4
12 05:56 NW 15 10.00 Fair CLR 62.1 53.1 69.1 57.9 73% 30.04 1013.3
12 04:56 NW 20 10.00 Fair CLR 61 35.1 38% 30 1011.8
Date Time (mdt) Wind (mph) Vis. (mi.) Weather Sky Cond. Air Dwpt Max. Min. Relative Humidity Wind Chill (°F) Heat Index (°F) altimeter (in) sea level (mb) 1 hr 3 hr 6 hr
6 hour
Temperature (ºF) Pressure Precipitation (in)